This demonstration page uses our WeatherBlox Daily Observations layout. Learn more.

Left ArrowRight Arrow

38.83388, -104.82136

Hourly Observations for March 24, 2021

Temp ( °F °C ) Dew Point ( °F °C ) Humidity (%) Winds ( mph kmh ) Pressure ( in mb ) Visibility ( mi km ) Precip ( " mm )
12:58 am 00:58 Cloudy with Light Snow 27 -2.8 22 -5.5 82 82 NW 15 24 29.70 1006 10 16 0.00 0.00
1:05 am 01:05 Cloudy 27 -3 23 -5 86 86 NNW 13 20 29.70 1006 9 14 0.00 0.00
1:58 am 01:58 Cloudy with Light Snow 27 -2.9 22 -5.7 81 81 N 10 17 29.70 1006 9 14 0.00 0.00
2:03 am 02:03 Cloudy with Light Snow 27 -3 21 -6 80 80 N 13 20 29.70 1006 4 6 0.00 0.00
2:05 am 02:05 Cloudy 27 -3 21 -6 80 80 N 10 17 29.70 1006 4 6 0.00 0.00
2:06 am 02:06 Cloudy with Light Snow 27 -3 21 -6 80 80 N 10 17 29.70 1006 4 6 0.00 0.00
2:58 am 02:58 Cloudy with Light Snow 26 -3.4 23 -5.1 88 88 N 13 20 29.69 1006 7 11 0.00 0.00
3:53 am 03:53 Cloudy with Light Snow 27 -3 23 -5 86 86 NNW 13 20 29.68 1005 2 3 0.00 0.00
3:58 am 03:58 Cloudy with Light Snow 26 -3.5 23 -5.2 88 88 NNW 13 20 29.68 1005 5 8 0.00 0.00
4:08 am 04:08 Cloudy with Light Snow 27 -3 23 -5 86 86 NW 15 24 29.68 1005 2 3 0.00 0.00
4:18 am 04:18 Cloudy with Light Snow 25 -4 23 -5 93 93 NW 14 22 29.71 1006 2 4 0.00 0.00
4:58 am 04:58 Cloudy with Light Snow 25 -3.8 22 -5.3 89 89 NNW 10 17 29.71 1006 6 10 0.00 0.00
5:08 am 05:08 Cloudy with Light Snow 25 -4 23 -5 93 93 NW 13 20 29.71 1006 5 8 0.00 0.00
5:23 am 05:23 Mostly Cloudy with Light Snow 25 -4 23 -5 93 93 NNW 12 19 29.71 1006 5 8 0.00 0.00
5:58 am 05:58 Mostly Cloudy with Light Snow 25 -3.9 22 -5.7 87 87 NNW 13 20 29.70 1006 10 16 0.00 0.00
6:13 am 06:13 Mostly Cloudy with Light Snow 25 -4 21 -6 86 86 NNW 14 22 29.70 1006 10 16 0.00 0.00
6:43 am 06:43 Cloudy with Light Snow 25 -4 21 -6 86 86 NNW 14 22 29.71 1006 10 16 0.00 0.00
6:48 am 06:48 Cloudy with Light Snow 25 -4 21 -6 86 86 NNW 12 19 29.72 1007 10 16 0.00 0.00
6:58 am 06:58 Cloudy with Light Snow 25 -3.9 21 -5.9 86 86 NNW 10 17 29.72 1007 10 16 0.00 0.00
7:33 am 07:33 Cloudy with Light Snow 25 -4 21 -6 86 86 N 10 17 29.74 1007 3 4 0.00 0.00
7:58 am 07:58 Cloudy with Light Snow 24 -4.4 22 -5.6 91 91 N 12 19 29.74 1007 7 11 0.00 0.00
8:53 am 08:53 Cloudy with Light Snow 25 -4 21 -6 86 86 NNW 14 22 29.73 1007 2 3 0.00 0.00
8:58 am 08:58 Cloudy with Light Snow 24 -4.2 22 -5.6 90 90 N 12 19 29.73 1007 2 3 0.00 0.00
9:48 am 09:48 Mostly Cloudy with Light Rain/Snow 27 -3 21 -6 80 80 N 9 15 29.71 1006 10 16 0.00 0.00
9:55 am 09:55 Mostly Cloudy with Light Rain 28 -2 23 -5 80 80 NNE 13 20 29.71 1006 10 16 0.00 0.00
9:58 am 09:58 Mostly Cloudy with Light Rain 28 -2.5 22 -5.8 78 78 NNE 10 17 29.71 1006 10 16 0.01 0.25
9:59 am 09:59 Mostly Cloudy 28 -2 23 -5 80 80 NNE 6 9 29.71 1006 10 16 0.00 0.00
10:14 am 10:14 Mostly Cloudy 27 -3 21 -6 80 80 N 9 15 29.73 1007 10 16 0.00 0.00
10:36 am 10:36 Mostly Cloudy with Light Showers 27 -3 21 -6 80 80 NE 8 13 29.73 1007 10 16 0.00 0.00
10:38 am 10:38 Mostly Cloudy with Light Rain/Snow 27 -3 21 -6 80 80 NNE 7 11 29.73 1007 10 16 0.00 0.00
10:39 am 10:39 Mostly Cloudy with Light Showers 27 -3 21 -6 80 80 NNE 7 11 29.73 1007 10 16 0.00 0.00
10:56 am 10:56 Mostly Cloudy 27 -3 19 -7 74 74 N 5 7 29.73 1007 10 16 0.00 0.00
10:58 am 10:58 Mostly Cloudy 27 -3 20 -6.6 76 76 Calm 29.73 1007 10 16 0.00 0.00
11:58 am 11:58 Cloudy 27 -3 21 -6.3 78 78 SE 3 6 29.71 1006 10 16 0.00 0.00
11:59 am 11:59 Cloudy with Light Rain 27 -3 21 -6 80 80 SE 3 6 29.70 1006 10 16 0.00 0.00
12:00 pm 12:00 Cloudy 27 -3 21 -6 80 80 SE 5 7 29.70 1006 10 16 0.00 0.00
12:03 pm 12:03 Cloudy with Light Showers 27 -3 21 -6 80 80 SE 8 13 29.70 1006 10 16 0.00 0.00
12:08 pm 12:08 Cloudy with Light Rain/Snow 27 -3 21 -6 80 80 SSE 8 13 29.70 1006 10 16 0.00 0.00
12:23 pm 12:23 Cloudy with Light Snow Showers 27 -3 21 -6 80 80 ESE 7 11 29.70 1006 10 16 0.00 0.00
12:58 pm 12:58 Cloudy with Light Snow Showers 27 -2.7 22 -5.4 82 82 SE 6 9 29.69 1005 10 16 0.00 0.00
1:38 pm 13:38 Cloudy with Light Snow Showers 27 -3 23 -5 86 86 SSE 7 11 29.67 1005 6 10 0.00 0.00
1:53 pm 13:53 Cloudy with Light Snow 27 -3 23 -5 86 86 S 8 13 29.67 1005 3 5 0.00 0.00
1:58 pm 13:58 Cloudy with Light Snow 26 -3.1 23 -5.1 86 86 SSE 6 9 29.67 1005 2 4 0.00 0.00
2:53 pm 14:53 Cloudy with Light Snow 28 -2 25 -4 86 86 S 8 13 29.65 1004 6 10 0.00 0.00
2:58 pm 14:58 Cloudy with Light Snow 29 -1.9 23 -4.9 80 80 SSE 9 15 29.63 1004 10 16 0.01 0.25
3:08 pm 15:08 Mostly Cloudy with Light Snow Showers 28 -2 21 -6 74 74 SSE 9 15 29.62 1003 10 16 0.00 0.00
3:18 pm 15:18 Mostly Cloudy with Light Snow Showers 28 -2 23 -5 80 80 S 12 19 29.62 1003 4 6 0.00 0.00
3:46 pm 15:46 Mostly Cloudy with Light Showers 30 -1 23 -5 75 75 SE 12 19 29.59 1002 10 16 0.00 0.00
3:51 pm 15:51 Partly Cloudy 30 -1 23 -5 75 75 SE 18 30 29.59 1002 10 16 0.00 0.00
3:58 pm 15:58 Partly Cloudy 30 -1.1 23 -5.2 74 74 SE 15 24 29.57 1002 10 16 0.00 0.00
4:58 pm 16:58 Mostly Sunny 30 -1.2 22 -5.7 72 72 SE 9 15 29.55 1001 10 16 0.00 0.00
5:58 pm 17:58 Mostly Cloudy 29 -1.6 22 -5.5 75 75 SSE 13 20 29.56 1001 10 16 0.00 0.00
6:34 pm 18:34 Mostly Cloudy with Light Snow 28 -2 21 -6 74 74 S 14 22 29.56 1001 10 16 0.00 0.00
6:49 pm 18:49 Mostly Cloudy 28 -2 21 -6 74 74 SSE 10 17 29.56 1001 10 16 0.00 0.00
6:51 pm 18:51 Mostly Cloudy with Light Snow 28 -2 21 -6 74 74 SSE 13 20 29.56 1001 10 16 0.00 0.00
6:58 pm 18:58 Mostly Cloudy with Light Snow Showers 29 -1.8 22 -5.8 74 74 SSE 14 22 29.56 1001 10 16 0.00 0.00
7:58 pm 19:58 Partly Cloudy with Scattered Snow Showers 28 -2.1 22 -5.8 76 76 S 17 28 29.56 1001 10 16 0.00 0.00
8:13 pm 20:13 Clear 28 -2 21 -6 74 74 S 17 28 29.56 1001 10 16 0.00 0.00
8:58 pm 20:58 Clear 28 -2.2 21 -5.9 76 76 S 18 30 29.56 1001 10 16 0.00 0.00
9:38 pm 21:38 Partly Cloudy with Isolated Snow Showers 28 -2 23 -5 80 80 S 14 22 29.56 1001 10 16 0.00 0.00
9:58 pm 21:58 Partly Cloudy with Light Snow Showers 28 -2.4 23 -5 83 83 S 15 24 29.54 1001 10 16 0.00 0.00
10:37 pm 22:37 Mostly Clear 27 -3 23 -5 86 86 S 9 15 29.56 1001 10 16 0.00 0.00
10:58 pm 22:58 Partly Cloudy 27 -3 21 -5.9 81 81 Calm 29.56 1001 10 16 0.00 0.00
11:03 pm 23:03 Mostly Cloudy 27 -3 21 -6 80 80 Calm 29.56 1001 10 16 0.00 0.00
11:38 pm 23:38 Mostly Cloudy 27 -3 21 -6 80 80 WNW 5 7 29.55 1001 10 16 0.00 0.00
11:58 pm 23:58 Mostly Cloudy 25 -3.8 20 -6.6 81 81 Calm 29.54 1000 10 16 0.00 0.00

Powered by AerisWeather